Location: ?????
(31.8092°N, 35.2590°E)
Time: 19:15:44
(UTC+00:00)

FALCON 9 DEB - Pass Details

Date: 20 June 2021
Orbit: 362 x 379 km, 53.0° (Epoch: 31 July)

Event Time Altitude Azimuth Distance (km) Brightness Sun altitude
Rises 17:11:15 0° 206° (SSW) 2,231 6.7 -5.2°
Reaches altitude 10° 17:13:22 10° 197° (SSW) 1,387 5.5 -5.6°
Maximum altitude 17:16:15 36° 129° (SE) 624 3.4 -6.1°
Drops below altitude 10° 17:19:10 10° 60° (ENE) 1,404 5.4 -6.6°
Sets 17:21:19 0° 52° (NE) 2,264 6.6 -7.0°
